DELTA 1 DEB, 7093

Orbit data source: Space-Track

DELTA 1 DEB, 7093 is space debris in SSO originally from a launch on Tue, 06 Nov 1973 UTC launched from the Air Force Western Test Range (AFWTR). Debris objects in space refer to the collection of defunct objects orbiting the Earth. Examples of debris include non-operational satellites, rocket bodies, and fragments generated from explosions, collisions, or faulty payload assembly.

Loading next visibility...
Identifier
7093, 1973-086CM
Orbit
SSO
Country
Flag of USUS
Related business
Manufacturer
Unknown
Mission
Spacecraft
Bus & Motor
Unknown
Mass
Unknown
Launch date (UTC)
1973-11-06 (52 years ago)
Launch vehicle
Unknown
Launch site
Air Force Western Test Range (AFWTR)
Object type
Payload
Rocket body
Debris
Shape & HBR
Unknown shape, 0.2 m
Radar Cross Section
Medium (>0.1 m² and <1 m²)

Expand to show TLE details & history
Last TLE update: 13 hours ago

TLE from 13 hours ago
0 DELTA 1 DEB
1 07093U 73086CM  26034.52351248 -.00000019  00000-0  23484-3 0  9993
2 07093 102.5786  60.6115 0071058 135.0643  22.0965 12.27057406328979
Epoch: 2026-02-03T12:33Z
TLE epoch observation values (Epoch: 2026-02-03T12:33:51.478Z)
Latitude
21.9764°
Longitude
-76.41534°
Altitude
1,512.037 km
Speed
7.134 km/s
True Right ascension
16h 23m 00s
True Declination
21° 52' 07"
Sunlit
Object was in daylight at epoch
Visualization orbit readout
Latitude
Unknown
Longitude
Unknown
Altitude
Unknown
Speed
Unknown
Apparent Right ascension
Unknown
Apparent Declination
Unknown
Sunlit
N/A
Visualization observer readout
Local Sidereal Time
03:13:33
Azimuth
Unknown
Elevation
Unknown
Doppler factor
Unknown
Orbital elements
Apogee altitude
1,615.98 km
Perigee altitude
1,503.173 km
Semi-major axis
7,937.713 km
Eccentricity
0.00711
Inclination
102.5786°
RAAN
60.6115°
Arg. of periapsis
135.0643°
True anomaly
22.40534°
Mean anomaly
22.0965°
Eccentric anomaly
22.25066°
Mean motion
3.06902 °/min
Orbital period
117.3 mins
BSTAR
0.00023484
Loading maneuver chart data...
Computing Atmospheric mass density...
Loading historical data...
Loading historical data...
Loading historical data...
Loading historical data...
Loading historical data...
Loading historical data...
Loading historical data...

Documentation

Showing up to 5 results
|